星链-5707 (STARLINK-5707 )

导读 | 豆包AI

STARLINK-5707是美国SpaceX公司星链(Starlink)卫星互联网项目的一颗通信卫星,于2023年6月12日成功发射入轨。它属于星链大规模低轨卫星星座的组成部分,旨在为全球偏远地区、海上和空中等传统网络覆盖不足区域提供高速低延迟宽带互联网服务,助力全球互联网接入普及,推动商业通信与数字互联发展。

基本信息
目录编号:
56879
目录名称:
STARLINK-5707
国际标识:
2023-083D
轨道中心:
EARTH
卫星名称:
星链-5707
卫星全名:
星链-5707 (STARLINK-5707 )
卫星状态:
在轨 (已飞行1007 天)
发射日期:
2023-06-12 UTC
国别 :
美国 (US)
星等 :
--
轨道信息
数据来源 国际轨道数据
星历时间: 2026-03-15T06:08:26+0800
23小时前
查看轨道信息
半长轴: 6937.123km
偏心率: 0.0001098
轨道倾角: 43.004°
近地点辐角 260.115°
升交点赤经 53.679°
平近点角 99.957°
近地点: 558.224km
远地点: 559.748km
周期: 95.836分钟
每日圈数: 15.025665
详细信息
固有亮度:
5
最大亮度:
2.4
卫星平台:
Starlink v1.5
覆盖范围:
全球
运营商:
太空探索技术公司
运营商所在国:
美国
制造商(研发单位):
太空探索技术公司
制造商所在国:
美国
使用方式:
暂无
卫星简介
星链(Starlink)计划是由太空探索技术公司(SpaceX)提出的一个巨型低轨卫星互联网星座项目,计划在2019年至2024年间在太空搭建由约1.2万颗卫星组成的“星链”网络,其中1584颗将部署在地球上空550千米处的近地轨道,并从2020年开始工作。该卫星仍在工作。
2D轨道图
3D轨道图
轨道高度分析图
轨道倾角分析图
轨道综合分析图
查看轨道综合分析图